Погода в Фор-де-Франсе

Мартиника     14°36′41″N   61°03′35″W
темп.,
°C
ветер,
м/с
пор.,
м/с
влажн.,
%
обл.,
%
осадки,
мм/ч
давл.,
гПа
погр.,
м
1 марта, пн
пн123:00+24св811710 0.1 10151035
02:00+23всв810692 0.1 10121016
05:00+23всв710726 0.0 1012941
08:00+24всв69705 0.1 10141108
11:00+26всв686722 0.5 10151205
14:00+27св686211 0.5 10121301
17:00+25св797021 0.3 10111111
20:00+24св697512 0.3 1013882
2 марта, вт
вт223:00+24св69780 0.1 1014829
02:00+23св69801 0.6 1012712
05:00+23св7108013 0.7 1012799
08:00+24всв68758 1.1 1014964
11:00+26всв686811 0.2 10151104
14:00+26в676311 0.2 10131146
17:00+25всв67680 0.0 10131011
20:00+24св68801 0.1 1015733
3 марта, ср
ср323:00+24всв797911 1.0 1015850
02:00+23всв697910 1.0 1014784
05:00+23всв69783 0.0 1014754
08:00+25всв79712 0.1 1016965
11:00+26в79665 0.0 10171177
14:00+27в78644 0.1 10141149
17:00+26всв687113 0.1 10141165
20:00+25всв68787 0.1 1015812
4 марта, чт
чт423:00+24в69810 0.2 1016755
02:00+24в68836 0.4 1015690
05:00+24в588417 0.1 1015632
08:00+25в687623 0.2 1016977
11:00+27в787131 0.1 10171008
14:00+27в787019 0.3 1014926
17:00+26в687523 0.2 1013949
20:00+25в698014 0.3 1015806
5 марта, пт
пт523:00+25в69790 0.1 1015798
02:00+24в69827 0.3 1014786
05:00+25в697842 0.3 1013754
08:00+26в687461 0.4 10151033
11:00+27в797267 0.1 1016964
14:00+27в787052 0.4 1013932
17:00+26в687429 0.0 10121011
20:00+25в698223 0.1 1014777